CW2101 Weather Reports


Display with metric or nautical units.
time (UTC)temp
F
wind
direction
speed
MPH
gust
MPH
rain 1hr
in
rain 24hr
in
rain mn
in
humidity
%
barometer
mb
20260906112603 68 25 4.0 9.0 0.00 0.00 0.00 88 989.7
20260906112103 68 49 5.0 9.0 0.00 0.00 0.00 88 989.7
20260906111603 68 47 4.0 7.0 0.00 0.00 0.00 88 989.8
20260906111103 69 24 3.0 8.0 0.00 0.00 0.00 88 989.6
20260906110603 69 31 3.0 8.0 0.00 0.00 0.00 88 989.6
20260906110103 69 26 3.0 7.0 0.00 0.00 0.00 88 989.5
20260906105602 69 39 3.0 9.0 0.00 0.00 0.00 88 989.5
20260906104603 69 25 5.0 9.0 0.00 0.00 0.00 87 989.2
20260906104103 69 32 5.0 10.0 0.00 0.00 0.00 87 988.9
20260906103603 69 52 5.0 9.0 0.00 0.00 0.00 87 989.0
20260906103103 70 52 5.0 9.0 0.00 0.00 0.00 87 988.9
20260906102603 70 48 5.0 10.0 0.00 0.00 0.00 87 989.0
20260906095603 71 43 6.0 13.0 0.00 0.00 0.00 88 988.6
20260906095102 71 37 5.0 10.0 0.00 0.00 0.00 88 988.5
20260906094604 71 42 6.0 10.0 0.00 0.00 0.00 89 988.5
20260906094103 71 48 5.0 12.0 0.00 0.00 0.00 89 988.6
20260906093603 71 45 6.0 12.0 0.00 0.00 0.00 89 988.6
20260906093102 71 46 4.0 10.0 0.00 0.00 0.00 89 988.5
20260906092603 71 35 5.0 13.0 0.00 0.00 0.00 89 988.5
20260906092103 71 31 3.0 13.0 0.00 0.00 0.00 89 988.5
20260906091603 71 9 3.0 9.0 0.00 0.00 0.00 89 988.8
20260906091103 71 16 5.0 8.0 0.00 0.00 0.00 89 988.8
20260906090603 71 14 4.0 8.0 0.00 0.00 0.00 89 988.8
20260906085603 71 9 4.0 9.0 0.00 0.00 0.00 89 988.8
20260906084603 71 345 3.0 7.0 0.00 0.00 0.00 88 988.6
20260906084103 71 351 4.0 9.0 0.00 0.00 0.00 88 988.6
20260906083604 71 356 4.0 9.0 0.00 0.00 0.00 88 988.7
20260906083104 71 351 3.0 8.0 0.00 0.00 0.00 88 988.6
20260906082603 71 4 3.0 7.0 0.00 0.00 0.00 88 988.7
20260906081103 71 346 3.0 7.0 0.00 0.00 0.00 88 988.6
20260906080604 71 348 3.0 8.0 0.00 0.00 0.00 88 988.6
20260906080103 71 332 3.0 8.0 0.00 0.00 0.00 88 988.5
20260906075603 71 343 4.0 8.0 0.00 0.00 0.00 88 988.4
20260906074603 71 3 3.0 7.0 0.00 0.00 0.00 88 988.4
20260906074103 71 5 3.0 7.0 0.00 0.00 0.00 88 988.3
20260906073603 71 4 3.0 7.0 0.00 0.00 0.00 88 988.4
20260906073103 71 21 3.0 7.0 0.00 0.00 0.00 88 988.5
20260906072103 71 1 4.0 8.0 0.00 0.00 0.00 88 988.5
20260906071104 71 356 3.0 7.0 0.00 0.00 0.00 87 988.5
20260906070603 71 6 3.0 7.0 0.00 0.00 0.00 87 988.5
20260906070104 71 354 4.0 7.0 0.00 0.00 0.00 87 988.5
20260906065104 71 3 4.0 8.0 0.00 0.00 0.00 87 988.7
20260906064104 71 2 3.0 8.0 0.00 0.00 0.00 87 988.7
20260906063604 71 1 3.0 8.0 0.00 0.00 0.00 87 988.7
20260906063103 71 344 3.0 8.0 0.00 0.00 0.00 87 988.7
20260906062603 71 3 3.0 7.0 0.00 0.00 0.00 87 988.8
20260906061604 71 346 3.0 8.0 0.00 0.00 0.00 87 988.9
20260906061103 71 6 3.0 7.0 0.00 0.00 0.00 87 988.8
20260906060604 71 28 3.0 8.0 0.00 0.00 0.00 87 988.8
20260906060104 71 345 3.0 7.0 0.00 0.00 0.00 87 988.8
20260906055604 71 11 3.0 7.0 0.00 0.00 0.00 87 988.7
20260906054603 71 2 3.0 7.0 0.00 0.00 0.00 87 988.8
20260906054104 71 358 3.0 8.0 0.00 0.00 0.00 87 988.6
20260906053603 71 346 2.0 6.0 0.00 0.00 0.00 87 988.6
20260906053103 71 357 3.0 7.0 0.00 0.00 0.00 87 988.6
20260906052103 70 9 3.0 6.0 0.00 0.00 0.00 87 988.5
20260906051604 70 350 3.0 7.0 0.00 0.00 0.00 87 988.5
20260906051104 70 357 4.0 8.0 0.00 0.00 0.00 87 988.6
20260906050104 70 27 4.0 8.0 0.00 0.00 0.00 87 988.6
20260906045603 70 358 3.0 7.0 0.00 0.00 0.00 87 988.6
20260906045103 71 356 2.0 6.0 0.00 0.00 0.00 87 988.5
20260906044604 71 357 2.0 9.0 0.00 0.00 0.00 87 988.5
20260906044104 71 3 3.0 9.0 0.00 0.00 0.00 87 988.5
20260906043603 71 10 3.0 9.0 0.00 0.00 0.00 86 988.4
20260906043104 71 20 3.0 8.0 0.00 0.00 0.00 86 988.3
20260906042604 71 26 3.0 8.0 0.00 0.00 0.00 86 988.2
20260906042104 71 24 6.0 12.0 0.00 0.00 0.00 86 988.2
20260906041603 71 0 5.0 10.0 0.00 0.00 0.00 86 988.1
20260906041103 71 2 5.0 10.0 0.00 0.00 0.00 86 988.1
20260906040604 71 24 6.0 13.0 0.00 0.00 0.00 86 988.2
20260906040104 71 5 5.0 9.0 0.00 0.00 0.00 87 988.3
20260906035104 71 27 5.0 10.0 0.00 0.00 0.00 87 988.3
20260906033604 71 18 4.0 9.0 0.00 0.00 0.00 87 988.2
20260906033104 71 8 5.0 10.0 0.00 0.00 0.00 87 988.1
20260906032604 71 351 3.0 8.0 0.00 0.00 0.00 87 988.0
20260906032104 72 356 4.0 8.0 0.00 0.00 0.00 86 988.0
20260906031604 72 11 4.0 9.0 0.00 0.00 0.00 86 987.9
20260906031103 72 339 3.0 9.0 0.00 0.00 0.00 86 987.9
20260906030104 72 1 4.0 9.0 0.00 0.00 0.00 86 987.8
20260906025104 73 14 6.0 10.0 0.00 0.00 0.00 86 987.6
20260906024604 73 12 3.0 10.0 0.00 0.00 0.00 86 987.5
20260906024104 73 22 5.0 9.0 0.00 0.00 0.00 86 987.4
20260906023604 73 30 5.0 8.0 0.00 0.00 0.00 86 987.4
20260906023103 73 58 3.0 7.0 0.00 0.00 0.00 86 987.3
20260906022604 74 29 3.0 7.0 0.00 0.00 0.00 86 987.2
20260906022104 74 3 5.0 12.0 0.00 0.00 0.00 85 987.2
20260906021603 74 21 5.0 10.0 0.00 0.00 0.00 85 987.1
20260906021104 74 10 4.0 9.0 0.00 0.00 0.00 85 987.1
20260906020604 74 34 6.0 12.0 0.00 0.00 0.00 85 987.1
20260906020104 75 30 5.0 12.0 0.00 0.00 0.00 85 986.9
20260906015604 75 29 3.0 8.0 0.00 0.00 0.00 85 986.9
20260906015104 75 4 5.0 9.0 0.00 0.00 0.00 85 986.7
20260906014604 76 351 3.0 7.0 0.00 0.00 0.00 85 986.6
20260906014102 76 5 3.0 10.0 0.00 0.00 0.00 84 986.4
20260906013601 76 25 5.0 12.0 0.00 0.00 0.00 84 986.4
20260906012601 77 8 5.0 10.0 0.00 0.00 0.00 84 986.2
20260906012101 77 24 5.0 10.0 0.00 0.00 0.00 83 986.1
20260906011601 77 4 6.0 14.0 0.00 0.00 0.00 83 986.1
20260906011101 78 355 6.0 10.0 0.00 0.00 0.00 83 986.0
20260906010601 78 13 5.0 9.0 0.00 0.00 0.00 83 986.0
20260906005601 79 16 4.0 14.0 0.00 0.00 0.00 82 985.5
20260906005101 79 8 6.0 13.0 0.00 0.00 0.00 82 985.4
20260906004601 79 14 4.0 10.0 0.00 0.00 0.00 82 985.2
20260906003601 80 6 5.0 10.0 0.00 0.00 0.00 81 985.0
20260906003101 80 359 3.0 12.0 0.00 0.00 0.00 81 985.0
20260906002601 81 1 5.0 10.0 0.00 0.00 0.00 81 984.9
20260906002101 81 358 3.0 9.0 0.00 0.00 0.00 80 984.7
20260906001601 81 29 5.0 14.0 0.00 0.00 0.00 80 984.6
20260906001101 82 16 5.0 12.0 0.00 0.00 0.00 79 984.5
20260906000601 82 7 6.0 12.0 0.00 0.00 0.00 79 984.4
20260905235601 83 359 5.0 12.0 0.00 0.00 0.00 79 984.2
20260905235101 84 0 5.0 12.0 0.00 0.00 0.00 78 984.0
20260905234601 84 27 5.0 12.0 0.00 0.00 0.00 78 983.9
20260905234101 85 355 5.0 12.0 0.00 0.00 0.00 77 983.8
20260905233601 86 11 5.0 12.0 0.00 0.00 0.00 76 983.6
20260905232101 88 352 6.0 12.0 0.00 0.00 0.00 71 982.8
20260905231601 89 332 6.0 10.0 0.00 0.00 0.00 69 982.5
20260905231101 89 333 6.0 12.0 0.00 0.00 0.00 69 982.4
20260905230601 89 348 6.0 14.0 0.00 0.00 0.00 68 982.4
20260905225602 89 309 5.0 12.0 0.00 0.00 0.00 67 982.3
20260905225101 89 331 5.0 10.0 0.00 0.00 0.00 68 982.1
20260905224602 89 320 6.0 13.0 0.00 0.00 0.00 68 982.0
20260905224101 89 314 6.0 15.0 0.00 0.00 0.00 67 982.0
20260905223601 90 333 7.0 15.0 0.00 0.00 0.00 67 982.0
20260905223101 90 315 5.0 14.0 0.00 0.00 0.00 66 982.0
20260905222102 90 328 5.0 13.0 0.00 0.00 0.00 66 982.0
20260905221602 90 325 6.0 13.0 0.00 0.00 0.00 66 981.9
20260905221101 90 336 6.0 14.0 0.00 0.00 0.00 66 981.9
20260905220602 90 319 7.0 15.0 0.00 0.00 0.00 65 981.8
20260905215602 91 306 8.0 14.0 0.00 0.00 0.00 67 981.8
20260905215101 91 296 5.0 13.0 0.00 0.00 0.00 67 981.7
20260905214602 91 295 4.0 10.0 0.00 0.00 0.00 67 981.6
20260905214101 91 300 7.0 12.0 0.00 0.00 0.00 66 981.7
20260905213601 91 303 6.0 14.0 0.00 0.00 0.00 66 981.4
20260905212601 91 337 2.0 7.0 0.00 0.00 0.00 67 981.5
20260905211601 91 292 5.0 10.0 0.00 0.00 0.00 67 981.5
20260905211101 90 280 5.0 8.0 0.00 0.00 0.00 69 981.8
20260905210602 91 321 4.0 10.0 0.00 0.00 0.00 69 981.8
20260905205601 91 308 5.0 10.0 0.00 0.00 0.00 67 981.6
20260905205101 91 323 3.0 9.0 0.00 0.00 0.00 67 981.3
20260905204602 90 315 3.0 8.0 0.00 0.00 0.00 68 981.6
20260905204102 90 290 3.0 12.0 0.00 0.00 0.00 70 981.9
20260905203101 90 298 3.0 8.0 0.00 0.00 0.00 71 981.8
20260905202102 89 301 3.0 7.0 0.00 0.00 0.00 74 982.0
20260905201602 89 279 4.0 7.0 0.00 0.00 0.00 74 982.3
20260905201102 89 298 3.0 8.0 0.00 0.00 0.00 75 982.2
20260905200604 89 289 3.0 7.0 0.00 0.00 0.00 74 982.2
20260905195602 90 269 2.0 10.0 0.00 0.00 0.00 75 982.2
20260905195102 91 291 5.0 9.0 0.00 0.00 0.00 69 981.9
20260905194602 92 285 5.0 10.0 0.00 0.00 0.00 65 981.4
20260905194102 92 316 4.0 9.0 0.00 0.00 0.00 65 981.4
20260905193602 92 323 3.0 7.0 0.00 0.00 0.00 67 981.5
20260905193102 91 267 2.0 7.0 0.00 0.00 0.00 67 981.7
20260905192102 92 294 3.0 7.0 0.00 0.00 0.00 66 981.6
20260905191102 92 255 3.0 7.0 0.00 0.00 0.00 64 981.9
20260905190601 92 316 4.0 12.0 0.00 0.00 0.00 65 982.1
20260905185602 92 217 2.0 7.0 0.00 0.00 0.00 65 981.7
20260905185102 92 308 5.0 10.0 0.00 0.00 0.00 63 981.9
20260905184601 92 284 5.0 9.0 0.00 0.00 0.00 62 981.8
20260905184102 92 288 6.0 9.0 0.00 0.00 0.00 62 981.9
20260905183602 92 268 4.0 8.0 0.00 0.00 0.00 63 981.8
20260905183102 91 292 4.0 8.0 0.00 0.00 0.00 64 981.9
20260905182602 91 281 2.0 8.0 0.00 0.00 0.00 65 982.1
20260905182102 91 254 3.0 7.0 0.00 0.00 0.00 66 982.3
20260905181601 91 280 5.0 9.0 0.00 0.00 0.00 65 982.3
20260905181101 91 305 6.0 10.0 0.00 0.00 0.00 64 982.2
20260905180602 92 281 4.0 9.0 0.00 0.00 0.00 65 982.1
20260905175602 92 290 3.0 9.0 0.00 0.00 0.00 65 982.1
20260905175102 92 301 3.0 13.0 0.00 0.00 0.00 65 982.2
20260905174602 92 337 5.0 13.0 0.00 0.00 0.00 65 982.3
20260905174102 92 304 3.0 8.0 0.00 0.00 0.00 63 982.2
20260905173602 92 290 4.0 10.0 0.00 0.00 0.00 64 982.2
20260905173102 92 297 3.0 8.0 0.00 0.00 0.00 64 982.2
20260905172601 92 303 5.0 12.0 0.00 0.00 0.00 62 982.1
20260905172102 92 291 5.0 8.0 0.00 0.00 0.00 62 982.1
20260905171602 91 298 7.0 17.0 0.00 0.00 0.00 62 982.1
20260905171102 91 275 6.0 10.0 0.00 0.00 0.00 62 982.3
20260905170602 91 302 5.0 10.0 0.00 0.00 0.00 63 982.4
20260905165602 91 321 3.0 10.0 0.00 0.00 0.00 64 982.5
20260905165102 91 297 5.0 12.0 0.00 0.00 0.00 63 982.3
20260905164602 91 284 6.0 10.0 0.00 0.00 0.00 63 982.4
20260905164102 91 244 2.0 8.0 0.00 0.00 0.00 64 982.5
20260905163602 91 292 5.0 9.0 0.00 0.00 0.00 62 982.6
20260905163102 91 301 5.0 9.0 0.00 0.00 0.00 62 982.7
20260905162602 91 267 3.0 12.0 0.00 0.00 0.00 64 982.6
20260905162103 90 311 4.0 9.0 0.00 0.00 0.00 64 982.7
20260905161603 90 273 5.0 9.0 0.00 0.00 0.00 65 982.7
20260905161102 90 266 4.0 8.0 0.00 0.00 0.00 66 982.7
20260905160602 90 270 3.0 8.0 0.00 0.00 0.00 66 982.6
20260905155603 90 267 4.0 9.0 0.00 0.00 0.00 65 982.9
20260905155103 90 275 5.0 9.0 0.00 0.00 0.00 67 982.9
20260905154602 89 283 2.0 6.0 0.00 0.00 0.00 68 982.9
20260905154103 89 234 4.0 9.0 0.00 0.00 0.00 68 982.9
20260905153602 89 243 3.0 9.0 0.00 0.00 0.00 69 983.0
20260905153102 89 277 3.0 8.0 0.00 0.00 0.00 70 983.0
20260905152602 88 232 3.0 7.0 0.00 0.00 0.00 70 983.1
20260905152103 88 266 3.0 8.0 0.00 0.00 0.00 72 983.1
20260905151602 87 242 3.0 8.0 0.00 0.00 0.00 72 983.1
20260905151102 87 214 5.0 10.0 0.00 0.00 0.00 72 983.2
20260905150602 87 240 5.0 9.0 0.00 0.00 0.00 72 983.2
20260905145602 87 238 5.0 10.0 0.00 0.00 0.00 73 983.2
20260905145102 87 247 4.0 9.0 0.00 0.00 0.00 73 983.2
20260905144604 86 253 3.0 8.0 0.00 0.00 0.00 74 983.2
20260905144103 86 230 5.0 10.0 0.00 0.00 0.00 74 983.4
20260905143102 85 272 3.0 9.0 0.00 0.00 0.00 75 983.6
20260905142602 85 232 2.0 9.0 0.00 0.00 0.00 75 983.7
20260905142102 85 219 5.0 8.0 0.00 0.00 0.00 75 983.8
20260905141603 84 247 3.0 7.0 0.00 0.00 0.00 77 984.0
20260905141102 84 223 4.0 9.0 0.00 0.00 0.00 78 984.1
20260905140603 84 231 5.0 8.0 0.00 0.00 0.00 78 984.2
20260905135603 83 225 5.0 8.0 0.00 0.00 0.00 78 984.3
20260905135102 83 217 5.0 7.0 0.00 0.00 0.00 78 984.3
20260905134102 83 249 2.0 3.0 0.00 0.00 0.00 79 984.2
20260905133602 83 230 2.0 7.0 0.00 0.00 0.00 80 984.4
20260905132603 82 224 2.0 6.0 0.00 0.00 0.00 82 984.7
20260905132102 82 221 4.0 8.0 0.00 0.00 0.00 81 984.8
20260905131602 81 221 5.0 8.0 0.00 0.00 0.00 82 984.9
20260905130602 81 227 3.0 6.0 0.00 0.00 0.00 83 985.0
20260905125603 81 227 3.0 8.0 0.00 0.00 0.00 81 984.8
20260905125103 81 217 2.0 7.0 0.00 0.00 0.00 81 984.8
20260905124602 80 213 3.0 5.0 0.00 0.00 0.00 82 984.8
20260905124103 80 225 3.0 6.0 0.00 0.00 0.00 83 984.9
20260905123602 79 226 2.0 3.0 0.00 0.00 0.00 84 985.1
20260905122602 78 201 2.0 5.0 0.00 0.00 0.00 85 985.3
20260905122102 77 176 2.0 5.0 0.00 0.00 0.00 86 985.5
20260905121102 77 0 0.0 2.0 0.00 0.00 0.00 86 985.5
20260905120603 77 221 0.0 2.0 0.00 0.00 0.00 86 985.5
20260905115603 78 250 0.0 2.0 0.00 0.00 0.00 85 985.3
20260905115103 77 259 1.0 3.0 0.00 0.00 0.00 85 985.3
20260905114602 76 223 2.0 3.0 0.00 0.00 0.00 86 985.5
20260905114103 76 219 2.0 3.0 0.00 0.00 0.00 87 985.7
20260905113603 76 238 1.0 2.0 0.00 0.00 0.00 87 985.7
20260905113102 76 314 0.0 1.0 0.00 0.00 0.00 87 985.6